{"data":{"norad_id":55599,"intl_designator":"2023-020AG","name":"STARLINK-5761","alt_names":[],"object_type":"PAYLOAD","status":"ACTIVE","operator":null,"country":"US","launch_date":"2023-02-12","launch_site_code":"AFETR","launch_vehicle":null,"mission":null,"orbit_class":"UNKNOWN","rcs_meters":null,"size_class":null,"mass_kg":null,"dimensions":null,"purposes":["comms"],"wikipedia_slug":null,"has_3d_model":false,"image_url":null,"decayed_at":null,"tle_current":{"epoch":"2026-09-20T21:53:09.528576Z","epoch_age_seconds":64615,"freshness":"FRESH","line1":"1 55599U 23020AG  26263.91191584 -.00000281  00000+0 -66625-6 0  9990","line2":"2 55599  43.0043 331.9062 0001385 298.1093  61.9618 15.27574300198892","mean_motion":15.275743,"eccentricity":0.0001385,"inclination_deg":43.0043,"raan_deg":331.9062,"arg_perigee_deg":298.1093,"mean_anomaly_deg":61.9618,"bstar":-6.6625e-7,"rev_number":19889,"period_min":94.267100461169,"perigee_km":482.11588730508,"apogee_km":484.0164405815,"semimajor_km":6861.2031639433,"source":"CELESTRAK","updated_at":"2026-09-21T09:00:33.270910Z"}}}